GFSFLT1_con_mucape_000.txt.gz
CAPE
380 312 255 587 826 789 820 494 444 111 150 84 97 99 54 15 6 0 1 0 2 0 0 0 0 0 0 0 0 0 0 0
177 107 162 267 860 759 550 381 194 94 57 63 98 33 19 16 7 2 0 2 0 0 0 0 0 0 0 0 0 0 0 0
126 111 96 175 204 111 114 39 22 16 40 56 52 44 35 28 10 6 0 0 0 0 0 0 0 0 0 0 0 0 0 0
123 82 31 80 80 70 37 23 34 48 43 41 45 41 17 5 0 0 0 0 0 0 0 0 0 0 0 0 0 0 0 0
7 5 2 0 0 0 0 0 0 1 1 0 0 0 0 0 0 0 0 0 0 0 0 0 0 0 0 0 0 0 0 0
0 0 0 0 0 0 0 0 0 0 0 0 0 0 0 0 0 0 0 0 0 0 0 0 0 0 0 0 0 0 0 2
0 0 0 0 0 0 0 0 0 0 0 0 0 0 0 0 0 0 0 0 0 0 0 0 0 0 0 0 0 0 0 3
0 0 0 0 0 0 0 0 0 0 0 0 0 0 0 0 2 10 0 0 2 0 0 0 0 0 0 0 0 0 2 6
0 0 0 0 0 0 0 0 4 3 0 1 3 9 13 14 13 30 0 3 0 0 0 0 0 0 0 0 0 0 0 0
0 0 0 0 0 0 2 16 11 0 0 2 4 13 17 23 12 0 0 0 0 0 1 6 0 0 0 0 0 0 0 0
0 1 3 0 0 14 33 26 19 3 0 0 1 2 2 0 0 0 1 3 5 15 23 0 0 0 0 0 0 0 0 0
1 6 1 3 8 7 0 0 0 0 0 0 0 0 9 10 0 3 5 3 0 34 11 2 0 0 0 0 0 0 5 0
3 5 2 7 9 1 0 0 0 0 0 0 0 8 23 23 9 18 15 20 16 7 0 0 0 0 0 0 0 0 0 0
0 1 2 0 0 0 0 0 0 0 0 0 0 0 0 14 48 23 20 4 7 1 0 0 0 0 0 0 0 0 0 0
0 0 0 0 0 0 0 0 0 0 0 0 0 0 0 0 25 26 19 2 1 0 0 0 0 0 0 0 0 0 0 0
1 0 0 0 0 0 0 0 0 0 0 0 0 0 0 0 23 22 10 0 0 0 0 0 0 0 0 2 0 0 1 0
0 0 0 0 0 0 0 0 0 0 0 0 0 0 0 0 0 0 0 0 0 0 0 0 0 0 1 0 0 0 0 0
0 0 0 0 0 0 0 0 0 0 0 0 0 0 0 0 0 1 8 0 0 7 2 0 0 0 0 0 0 0 0 0
0 0 0 0 0 0 0 0 0 0 0 0 0 0 0 0 1 4 0 1 2 0 0 0 0 0 0 0 0 0 0 0

GFSFLT1_con_mucape_003.txt.gz
CAPE
337 291 278 309 411 599 690 487 232 168 138 105 62 38 52 41 43 38 22 5 7 19 4 2 0 0 0 0 0 0 0 0
429 466 359 447 546 792 588 344 222 113 88 102 42 82 49 35 48 33 27 25 0 0 0 0 0 0 0 0 0 0 0 0
221 276 580 729 656 486 260 125 33 45 72 95 88 67 37 11 9 1 0 0 0 0 0 0 0 0 0 0 0 0 0 0
80 39 32 98 107 96 56 27 45 65 83 25 7 0 0 0 0 0 0 0 0 0 0 0 0 0 0 0 0 0 0 0
1 0 0 1 0 0 0 0 0 0 0 0 0 0 0 0 0 0 0 0 0 0 0 0 0 0 0 0 0 0 0 0
0 0 0 0 0 0 0 0 0 0 0 0 0 0 0 0 0 0 0 0 0 0 0 1 0 0 0 0 0 0 0 0
0 0 0 0 0 0 0 0 0 0 0 0 0 0 0 0 0 0 0 0 0 0 4 0 0 0 0 0 0 0 0 0
1 0 0 0 0 0 0 0 0 0 0 0 0 0 0 0 0 0 0 6 1 2 0 0 0 0 0 0 0 0 0 0
0 0 0 0 0 0 0 0 0 0 0 0 0 0 0 0 8 8 0 0 0 0 0 0 0 0 7 0 0 0 0 0
0 0 0 0 0 0 0 0 0 0 0 0 0 0 0 0 0 0 0 0 0 3 5 14 25 0 5 0 0 0 0 0
0 0 0 0 0 0 2 10 1 0 0 0 0 0 0 0 0 0 0 1 10 31 27 27 9 0 0 0 0 0 0 0
5 2 2 0 0 2 1 0 0 0 0 0 0 0 0 0 0 0 0 10 13 30 21 7 0 3 0 0 0 0 0 0
17 20 4 0 0 0 0 0 0 0 0 0 0 0 0 0 0 0 0 4 6 15 7 4 1 0 0 0 0 0 0 0
6 3 8 2 2 0 0 0 0 0 0 0 0 0 0 0 0 0 0 0 0 4 0 0 0 0 0 0 0 0 0 0
2 1 13 2 0 0 0 0 0 0 0 0 0 0 0 0 0 0 0 0 5 0 0 0 0 0 0 0 0 0 0 0
2 10 11 1 0 0 0 0 0 0 0 0 0 0 0 0 0 0 0 2 0 0 0 0 0 0 0 0 0 0 0 0
31 33 11 0 0 0 0 0 0 0 0 0 0 0 0 0 0 0 7 4 9 0 0 0 0 0 0 0 0 0 0 0
13 2 0 0 0 0 0 0 0 0 0 0 0 0 0 0 0 0 1 3 0 0 0 0 0 0 0 0 0 0 0 0
5 0 0 0 0 0 0 0 0 0 0 0 0 0 0 0 0 0 1 1 1 1 0 0 0 0 0 0 0 0 0 0

GFSFLT1_con_mucape_006.txt.gz
CAPE
273 208 191 180 266 547 639 387 205 138 89 89 80 34 27 36 35 19 22 15 15 11 10 4 0 0 0 0 0 0 0 0
415 338 281 231 391 544 475 282 183 92 41 32 19 15 45 24 0 1 0 0 0 0 0 0 0 0 0 0 0 0 0 0
272 344 460 502 415 146 45 38 27 8 2 21 25 2 2 0 0 0 0 0 0 0 0 0 0 0 0 0 0 0 0 0
43 76 96 47 25 6 4 0 0 0 0 0 0 0 0 0 0 0 0 0 0 0 0 0 0 0 0 0 0 0 0 0
0 0 0 0 0 0 0 0 0 0 0 0 0 0 0 0 0 0 0 0 0 0 0 0 0 0 0 0 0 0 0 0
1 0 0 0 0 0 0 0 0 0 0 0 0 0 0 0 0 0 0 0 0 0 0 0 0 0 0 0 0 0 0 0
1 0 0 0 0 0 0 0 0 0 0 0 0 0 0 0 0 0 0 0 0 0 0 0 0 0 0 0 0 0 0 0
0 5 0 0 0 0 0 0 0 0 0 0 0 0 0 0 0 0 0 0 0 0 0 0 0 0 0 8 1 0 0 0
7 0 0 0 0 0 0 0 0 0 0 0 0 0 0 0 0 0 0 0 0 0 0 0 3 0 7 6 5 0 0 0
0 0 0 0 0 0 0 0 0 0 0 0 0 0 0 0 0 0 0 0 0 0 2 5 2 14 7 10 0 0 0 0
0 0 0 0 0 0 0 0 0 0 0 0 0 0 0 0 0 0 0 0 0 1 11 19 19 2 1 2 0 0 0 0
0 0 3 4 2 7 10 0 0 0 0 0 0 0 0 0 0 0 0 0 0 10 12 11 1 0 0 0 0 0 0 0
1 4 18 16 12 2 0 0 0 0 0 0 0 0 0 0 0 0 0 0 0 11 0 1 0 0 0 0 0 0 0 0
1 8 17 13 5 0 0 0 0 0 0 0 0 0 0 0 0 0 0 0 0 3 9 2 0 0 0 0 0 0 0 0
0 4 4 10 4 1 0 0 0 0 0 0 0 0 0 0 0 0 0 0 3 3 3 0 0 0 0 0 0 0 0 0
4 8 13 25 3 0 0 0 0 0 0 0 0 0 0 0 0 0 0 0 2 7 0 0 0 0 0 0 0 0 0 0
17 21 32 18 0 0 0 0 0 0 0 0 0 0 0 0 0 0 0 6 0 0 0 0 0 0 0 0 0 0 0 0
29 39 16 0 0 0 0 0 0 0 0 0 0 0 0 0 0 0 0 1 0 1 0 0 3 0 0 0 0 0 0 0
10 0 0 0 0 0 0 0 0 0 0 0 0 0 0 0 0 0 0 1 5 6 1 0 0 0 0 0 0 0 0 0

GFSFLT1_con_mucape_009.txt.gz
CAPE
252 160 140 168 274 308 370 417 281 125 90 69 59 25 20 17 30 43 35 1 1 0 0 0 0 0 0 0 0 0 0 0
360 316 296 299 457 556 563 372 225 85 22 0 3 0 0 28 4 0 0 0 0 0 0 0 0 0 0 0 0 0 0 0
226 275 369 403 316 129 102 42 21 1 0 0 0 0 0 0 0 0 0 0 0 0 0 0 0 0 0 0 0 0 0 0
140 47 1 0 0 0 0 0 0 0 0 0 0 0 0 0 0 0 0 0 0 0 0 0 0 0 0 0 0 0 0 0
0 0 0 0 0 0 0 0 0 0 0 0 0 0 0 0 0 0 0 0 0 0 0 0 0 0 0 0 0 0 0 0
0 0 0 0 0 0 0 0 0 0 0 0 0 0 0 0 0 0 0 0 0 0 0 0 0 0 0 0 0 0 0 0
0 0 0 0 0 0 0 0 0 0 0 0 0 0 0 0 0 0 0 0 0 0 0 0 0 0 0 7 1 0 0 0
0 1 2 0 0 0 0 0 0 0 0 0 0 0 0 0 0 0 0 0 0 0 0 0 0 0 7 4 0 0 0 0
0 2 0 0 0 0 0 0 0 0 0 0 0 0 0 0 0 0 0 0 0 0 0 0 0 7 10 7 0 0 0 0
0 0 0 0 0 0 0 0 0 0 0 0 0 0 0 0 0 0 0 0 0 0 0 0 8 20 10 0 2 4 4 16
0 0 0 0 0 0 0 0 0 0 2 0 0 0 0 0 0 0 0 0 0 0 0 8 17 4 0 0 2 12 0 22
0 0 0 1 2 5 9 2 3 2 0 0 0 0 0 0 0 0 0 0 0 0 6 19 20 7 6 5 3 0 0 15
0 2 3 6 13 16 23 16 7 0 0 0 0 0 0 0 0 0 0 0 0 0 5 3 13 10 12 0 0 0 0 0
6 6 9 9 11 26 33 14 0 0 0 0 0 0 0 0 0 0 0 0 0 0 0 4 4 1 0 0 0 0 0 0
2 9 14 12 21 15 0 0 0 0 0 0 0 0 0 0 0 0 0 0 0 1 7 13 8 0 0 0 0 0 0 0
0 6 11 13 15 1 0 0 0 0 0 0 0 0 0 0 0 0 0 0 6 2 3 0 0 0 0 0 0 0 0 0
0 11 20 8 0 0 0 0 0 0 0 0 0 0 0 0 0 0 0 0 2 1 0 0 0 0 0 0 0 0 0 0
1 16 12 6 0 0 0 0 0 0 0 0 0 0 0 0 0 0 0 0 2 5 4 10 6 3 0 0 0 0 0 0
3 10 11 4 0 0 0 0 0 0 0 0 0 0 0 0 0 0 0 0 0 6 6 4 0 0 0 0 0 0 0 0

GFSFLT1_con_mucape_012.txt.gz
CAPE
295 450 611 825 948 1154 1247 827 600 517 202 89 56 49 12 9 25 43 1 0 0 0 0 0 0 0 0 0 0 0 0 0
447 622 807 948 1028 1066 1157 829 704 581 196 17 0 0 0 0 0 0 0 0 0 0 0 0 0 0 0 0 0 0 0 0
490 811 997 1113 1129 1077 911 767 624 381 66 0 4 8 0 0 0 0 0 0 0 0 0 0 0 0 0 0 0 0 0 11
720 779 760 667 630 575 270 62 4 0 0 0 0 0 0 0 0 0 0 0 0 0 0 0 0 0 0 1 0 1 5 5
146 23 63 4 0 0 0 0 0 0 0 0 0 0 0 0 0 0 0 0 0 0 0 0 0 0 0 3 1 0 0 0
0 0 0 0 0 0 0 0 0 0 0 0 0 0 0 0 0 0 0 0 0 0 0 0 0 0 1 1 0 0 2 6
0 0 0 0 0 0 0 0 0 0 0 0 0 0 0 0 0 0 0 0 0 0 0 0 6 7 10 2 0 2 1 0
0 0 0 0 0 0 0 0 0 0 0 0 0 0 0 0 0 0 0 0 0 0 0 0 5 17 5 9 6 11 5 0
0 0 0 0 0 0 0 0 0 0 0 0 0 2 2 0 0 0 0 0 0 0 0 0 11 26 7 2 35 32 18 10
0 0 0 0 0 0 0 0 0 0 0 0 0 0 0 0 0 0 0 0 0 0 6 20 29 21 21 49 44 29 24 14
0 0 0 0 0 0 0 0 2 0 3 1 0 0 0 0 0 0 0 0 0 0 11 38 54 32 35 38 44 29 16 23
0 0 0 0 3 1 0 0 6 9 0 0 0 0 0 0 0 0 0 0 0 0 3 30 38 47 30 59 71 20 22 32
0 0 0 3 5 1 3 9 8 10 0 0 0 0 0 0 0 0 0 0 0 0 2 21 43 54 61 58 47 18 25 33
0 0 0 5 7 3 5 3 9 0 0 0 0 0 0 0 0 0 0 0 2 6 12 30 40 48 58 32 22 23 31 31
0 0 3 5 4 7 10 5 0 0 0 0 0 0 0 0 0 0 0 0 3 15 19 25 45 32 22 6 11 19 15 14
0 1 3 0 4 8 10 0 0 0 0 0 0 0 0 0 0 0 0 0 9 26 5 4 0 0 0 0 0 2 15 2
0 0 0 0 4 14 1 0 0 0 0 0 0 0 0 0 0 0 0 2 11 30 44 42 44 0 2 2 0 0 0 0
0 0 0 3 13 3 5 0 0 0 0 0 0 0 0 0 0 0 2 4 19 26 50 47 42 24 0 0 0 0 0 0
0 0 0 6 8 12 2 0 0 0 0 0 0 0 0 0 0 0 6 14 17 26 37 41 27 0 0 0 0 0 0 0

GFSFLT1_con_mucape_015.txt.gz
CAPE
739 717 599 573 847 1513 1593 1317 1206 612 392 445 338 137 31 5 17 22 0 0 0 0 0 0 0 0 0 0 0 0 0 0
817 937 1132 1126 1320 1539 1046 1094 1223 794 810 583 73 9 1 0 0 0 0 0 0 0 0 0 0 0 0 0 2 0 0 0
953 1173 1359 1413 1423 1408 1122 1060 936 913 481 65 21 49 30 0 0 0 0 0 0 0 0 0 0 0 0 0 1 0 0 0
1126 1354 1455 1367 1307 1269 1184 943 734 288 28 27 48 14 0 0 0 0 0 0 0 0 0 0 0 0 0 0 1 7 0 0
1201 1260 1189 1035 894 674 359 96 7 1 0 0 1 19 21 0 0 0 0 0 0 0 0 0 0 0 0 0 0 3 6 7
637 417 246 107 45 8 0 0 0 0 0 0 0 0 0 0 0 0 0 0 0 0 0 0 0 0 1 6 14 14 20 26
65 1 0 0 0 0 0 0 0 0 0 0 0 0 0 0 0 0 1 0 0 0 0 0 0 0 7 16 21 27 32 23
0 0 0 0 0 0 0 0 0 0 0 0 0 0 0 0 0 0 0 0 0 0 0 0 0 0 7 14 27 30 58 26
0 0 0 0 0 0 0 0 0 0 0 0 0 0 7 0 0 0 0 0 0 0 0 0 3 10 17 33 56 76 57 43
0 0 0 0 0 0 0 0 0 0 0 0 0 3 1 0 0 0 0 0 0 0 0 0 10 19 25 56 65 68 80 52
0 0 0 0 0 0 0 0 0 0 0 0 0 12 0 0 0 0 0 0 0 0 0 0 5 43 50 54 56 60 47 55
0 0 0 0 0 0 0 0 2 1 0 0 8 3 0 0 0 0 0 0 0 0 0 0 3 24 40 59 46 63 78 45
1 0 0 0 0 0 0 3 6 4 2 3 1 0 0 0 0 0 0 0 0 0 0 6 16 21 23 46 58 59 53 51
1 0 0 0 0 0 2 6 6 5 10 6 0 0 0 0 0 0 0 0 0 1 10 15 23 20 27 50 59 55 39 41
0 0 0 0 0 5 10 6 4 6 15 0 0 0 0 0 0 0 0 0 0 4 12 11 17 21 17 25 24 22 30 33
0 0 0 0 1 10 20 1 1 9 5 0 0 0 0 0 0 0 0 0 1 6 16 18 34 22 4 1 6 23 31 26
0 0 0 0 0 4 0 0 2 16 0 0 0 0 0 0 0 0 0 2 5 9 20 31 32 20 0 0 0 0 3 16
0 0 0 0 0 0 0 13 27 11 1 0 0 0 0 0 0 0 0 4 10 16 25 30 39 28 0 0 0 0 0 3
0 0 0 0 0 0 16 37 20 10 16 0 0 0 0 0 0 0 0 7 12 15 20 30 39 11 0 0 0 0 1 2

GFSFLT1_con_mucape_018.txt.gz
CAPE
455 379 360 282 1265 1311 1007 1100 811 511 314 339 474 281 34 7 0 0 0 0 0 0 0 0 0 0 0 0 0 0 0 0
730 878 878 737 1504 1464 1133 902 579 517 436 427 350 19 0 0 0 0 0 0 0 0 0 0 0 0 0 0 0 0 0 0
848 1075 1290 1442 1590 1512 1037 869 583 706 774 250 4 1 0 0 0 0 0 0 0 0 0 0 0 0 0 0 0 0 0 0
980 1194 1421 1643 1255 1279 830 819 824 976 255 11 9 0 0 0 0 0 0 0 0 0 0 0 0 0 0 0 0 0 0 0
1023 1267 1373 1191 976 1149 1045 929 604 120 11 0 0 0 0 0 0 0 0 0 0 0 0 0 0 0 0 0 0 0 0 0
1042 1278 1304 1184 1081 852 380 143 25 0 0 0 0 0 0 0 0 0 0 0 0 0 0 0 0 0 0 0 0 1 0 2
945 830 604 342 208 108 9 0 0 0 0 0 0 0 0 0 0 0 2 0 0 0 0 0 0 0 0 0 0 0 0 0
404 167 30 10 0 0 0 0 0 0 0 0 0 0 0 0 1 14 16 0 0 0 0 0 0 0 0 0 0 0 0 0
45 3 0 0 0 0 0 0 0 0 0 0 0 0 0 0 2 16 3 0 0 0 0 0 0 0 0 0 0 2 4 8
0 0 0 0 0 0 0 0 0 0 0 0 0 0 0 4 13 5 0 0 0 0 0 0 0 0 4 8 1 11 33 20
0 0 0 0 0 0 0 0 0 0 0 0 0 0 1 9 5 0 0 0 0 0 0 0 0 0 16 27 19 29 13 15
0 0 0 0 0 0 0 0 0 0 0 1 4 8 5 4 0 0 0 0 0 0 0 0 0 0 3 1 0 8 14 22
0 0 0 0 0 0 0 0 0 0 0 1 5 7 6 0 0 0 0 0 0 0 0 0 0 4 11 7 15 23 38 22
0 0 0 0 0 0 0 0 0 0 2 5 6 2 22 0 0 0 0 0 0 0 0 0 0 0 0 0 15 34 4 12
20 0 0 0 0 0 0 0 0 0 28 5 1 18 13 0 0 0 0 0 0 0 0 3 4 0 1 1 0 0 0 0
51 73 33 5 0 0 0 0 0 16 15 9 23 7 0 0 0 0 0 0 0 0 0 9 13 5 3 0 0 0 0 0
42 87 88 64 16 0 0 0 0 12 18 16 9 7 0 0 0 0 0 0 0 0 0 8 23 24 0 2 0 0 0 0
1 24 32 33 0 0 0 0 0 0 1 8 11 0 0 0 0 0 0 0 0 2 3 5 7 11 5 2 0 0 0 0
0 1 3 0 0 0 0 0 0 0 13 9 0 0 0 0 0 0 0 0 0 0 0 3 5 4 4 1 0 0 0 0

GFSFLT1_con_mucape_021.txt.gz
CAPE
69 95 177 387 369 360 320 431 509 433 401 62 69 84 28 3 1 0 0 0 0 0 0 0 0 0 0 0 0 0 0 0
145 107 325 618 754 601 459 508 549 498 211 81 175 64 15 0 0 0 0 0 0 0 0 0 0 0 0 0 0 0 0 0
400 461 709 983 898 929 600 626 668 573 199 222 158 20 0 0 0 0 0 0 0 0 0 0 0 0 0 0 0 0 0 0
627 738 827 1254 1124 1039 730 749 677 362 310 342 6 0 0 0 0 0 0 0 0 0 0 0 0 0 0 0 0 0 0 0
757 950 1003 1280 1242 965 744 673 364 422 530 0 0 0 0 0 0 0 0 0 0 0 0 0 0 0 0 0 0 0 0 0
855 1055 1184 1165 1053 792 561 430 447 502 0 0 0 0 0 0 0 0 0 0 0 0 0 0 0 0 0 0 0 0 0 0
891 1087 1176 1007 795 785 745 388 94 36 0 0 0 0 0 0 0 0 0 0 1 0 0 0 0 0 0 0 0 0 0 0
989 1091 955 853 755 619 530 228 120 54 2 0 0 0 0 0 0 0 0 1 0 0 0 0 0 0 0 0 0 0 0 0
861 841 659 614 497 301 215 158 38 0 0 0 0 0 0 0 0 0 2 4 0 0 0 0 0 0 0 0 0 0 0 0
655 597 485 297 81 11 0 0 0 0 0 0 0 0 0 2 4 3 10 2 0 0 0 0 0 0 0 0 1 1 0 0
376 240 110 28 0 0 0 0 0 0 0 0 3 5 9 12 5 17 12 2 0 0 0 0 0 0 0 0 13 9 7 8
177 29 0 0 0 0 0 0 0 0 0 0 0 2 4 3 9 28 21 0 0 0 0 0 0 0 0 0 0 0 0 0
165 41 0 0 0 0 0 0 0 0 0 0 1 0 0 20 30 25 0 0 0 0 0 0 0 0 0 0 0 0 3 0
95 20 0 0 0 0 0 0 0 0 0 0 11 0 11 41 31 11 0 0 0 0 0 0 0 0 0 0 0 0 0 0
33 1 0 0 3 4 23 54 74 6 0 0 8 9 14 16 13 0 0 0 0 0 0 0 0 0 0 0 0 0 0 0
61 33 39 48 56 66 68 86 90 48 0 0 2 7 11 7 1 0 0 0 0 0 0 0 0 0 1 0 1 1 0 0
0 35 54 62 70 64 71 71 64 40 0 0 2 4 8 10 0 0 0 0 0 0 0 0 0 1 7 1 7 4 0 0
0 38 69 78 71 55 48 55 39 0 1 4 0 0 1 0 0 0 0 0 0 0 0 0 0 1 1 0 0 0 0 0
0 0 13 32 44 55 53 41 6 1 2 2 2 4 0 0 0 0 0 0 0 0 0 0 0 0 0 0 3 0 0 0

GFSFLT1_con_mucape_024.txt.gz
CAPE
726 708 559 350 304 626 273 379 276 217 190 182 67 32 12 12 0 0 0 0 0 0 0 0 0 0 0 0 0 0 0 0
511 797 570 281 272 475 345 391 316 265 245 217 103 54 98 48 0 0 0 0 0 0 0 0 0 0 0 0 0 0 0 0
207 507 572 452 404 477 378 357 362 343 369 250 85 88 107 34 0 0 0 0 0 0 0 0 0 0 0 0 0 0 0 0
105 171 512 553 523 629 500 448 471 466 458 285 123 92 77 0 0 0 0 0 0 0 0 0 0 0 0 0 0 0 0 0
341 285 561 572 664 758 624 642 597 554 522 210 150 123 0 0 0 0 0 0 0 0 0 0 0 0 0 0 0 0 0 0
440 759 788 823 785 736 710 724 670 664 213 284 131 0 0 0 0 0 0 0 0 0 0 0 0 0 0 0 0 0 0 0
591 818 1099 1108 996 885 791 850 790 395 518 437 96 7 4 4 10 0 0 0 1 1 0 0 0 0 0 0 0 0 0 0
795 933 1113 1214 1059 690 520 503 425 502 579 19 9 18 26 30 3 0 0 0 0 0 0 0 0 0 0 0 0 0 0 0
868 1069 1134 1139 881 633 480 386 289 202 32 4 16 49 34 1 6 15 1 0 1 0 1 0 0 0 0 0 0 0 0 0
953 1116 1215 937 756 658 492 315 492 183 126 62 62 54 8 16 29 0 0 0 1 0 0 0 0 0 0 0 0 0 0 0
1043 1166 976 798 632 521 398 325 124 168 214 51 1 0 0 2 0 0 1 8 5 12 1 0 0 0 0 0 0 1 0 0
858 785 634 526 390 232 104 68 62 39 5 0 1 6 6 5 6 6 13 18 23 2 1 0 0 0 0 0 0 0 0 0
558 482 451 410 234 28 0 0 0 0 36 68 20 0 13 8 14 12 7 17 21 0 0 0 0 0 0 0 0 0 0 0
435 427 417 282 74 11 4 2 0 47 57 70 66 25 0 0 2 3 3 4 2 0 0 0 0 0 0 0 0 0 0 0
363 328 256 148 81 68 44 21 36 45 46 58 49 22 1 0 0 0 0 0 0 0 0 0 0 0 0 0 0 2 7 4
331 273 157 69 42 48 35 33 37 53 59 56 30 2 1 0 1 0 0 0 0 0 0 0 0 0 0 0 0 5 10 6
0 36 51 45 44 43 40 40 52 63 55 27 9 3 0 3 6 1 0 0 0 0 0 0 0 0 0 0 4 4 5 4
0 0 0 8 35 69 50 62 61 54 27 11 6 6 1 3 0 0 1 0 0 0 0 0 0 0 0 0 3 1 6 3
0 0 0 3 29 46 64 69 50 29 12 1 1 2 3 4 1 6 0 0 0 0 0 0 0 0 0 0 0 4 4 1

GFSFLT1_con_mucape_027.txt.gz
CAPE
165 131 265 561 534 510 593 656 606 320 227 332 317 176 31 13 20 1 0 0 0 0 0 0 0 0 0 0 0 0 0 0
363 425 459 579 503 554 795 561 387 255 274 249 214 143 52 33 29 12 0 0 0 0 0 0 0 0 0 0 0 0 0 0
581 617 577 542 489 620 692 278 246 294 292 230 185 130 42 60 59 31 0 0 0 0 0 0 0 0 0 0 0 0 0 0
570 596 616 423 387 598 579 330 314 237 233 236 236 170 64 58 79 49 0 0 0 0 0 0 0 0 0 0 0 0 0 0
406 525 693 551 322 357 546 363 353 324 304 289 291 203 51 76 118 22 0 0 0 0 0 0 0 0 0 0 0 0 0 0
311 300 548 619 436 347 354 416 397 359 288 395 364 304 106 107 58 0 0 0 0 0 0 0 0 4 0 0 0 0 0 0
170 227 319 460 531 481 371 567 498 455 438 438 304 128 112 42 0 0 3 2 1 0 0 0 1 4 0 0 0 0 0 0
256 548 535 486 564 664 628 647 561 433 574 679 149 254 88 21 34 41 43 35 0 4 6 3 0 0 0 0 0 0 0 0
390 637 735 709 753 825 803 706 625 670 748 345 413 472 274 49 47 61 39 11 22 5 2 0 4 0 0 0 0 0 0 0
441 681 937 1027 1087 1071 892 798 741 671 375 463 603 57 69 51 61 68 42 21 13 11 0 0 0 0 0 0 0 0 0 0
475 684 988 1090 1172 1129 685 577 505 340 282 231 106 14 36 73 54 44 39 41 10 1 5 4 3 3 0 0 0 0 0 0
539 720 983 1132 1159 908 694 634 460 284 160 35 49 74 92 16 19 23 18 10 5 2 1 0 0 5 0 0 0 0 0 0
649 861 1034 1108 1176 904 746 563 363 195 175 115 82 50 29 49 26 12 16 15 4 3 0 0 0 0 0 0 0 0 0 0
721 878 1028 1152 1016 739 570 437 298 113 97 82 26 30 44 34 7 3 0 0 0 0 0 0 0 0 0 0 0 0 0 0
621 847 951 1001 743 479 332 234 116 38 26 31 33 51 41 26 6 4 3 3 3 0 0 0 0 0 0 0 0 0 0 0
181 473 584 577 466 339 210 107 56 30 34 36 47 45 44 26 14 3 4 2 2 0 0 0 0 0 0 0 0 0 0 3
91 218 319 320 252 207 132 68 44 37 46 47 62 44 36 19 20 15 6 9 8 0 0 0 0 0 0 0 0 0 0 4
0 0 0 2 3 5 11 21 44 51 42 50 51 29 23 19 15 14 12 7 3 0 0 0 0 0 0 0 0 0 0 7
0 0 0 0 0 0 0 0 22 42 53 62 53 46 18 15 19 10 1 0 0 0 0 0 0 0 0 0 0 0 1 2

GFSFLT1_con_mucape_030.txt.gz
CAPE
149 43 27 105 233 368 388 419 500 259 22 88 296 310 317 87 20 13 18 0 0 0 0 0 0 0 0 0 0 0 0 0
180 93 100 272 387 508 506 458 472 276 149 202 294 388 231 71 32 33 28 3 0 0 0 0 0 0 0 0 0 0 0 0
309 181 178 290 412 494 478 454 464 343 360 211 263 224 114 48 45 29 31 23 0 0 0 0 0 0 0 0 0 0 0 0
489 344 322 307 376 488 472 464 595 610 506 251 199 174 114 101 28 26 37 48 0 0 0 0 0 0 0 0 0 0 0 0
432 500 493 462 438 525 480 579 736 470 253 239 231 211 133 69 23 32 43 83 12 0 0 0 0 0 0 0 0 1 0 1
462 411 491 621 531 544 512 612 727 311 265 294 259 175 187 98 41 81 88 130 8 0 0 0 0 0 0 0 0 6 0 0
219 368 457 524 550 547 310 329 503 389 269 251 212 217 124 121 72 92 110 69 0 1 10 4 0 1 0 0 0 0 0 0
177 203 244 401 505 602 429 106 145 460 305 307 233 179 160 309 78 122 46 12 39 53 62 13 2 16 3 1 0 0 0 0
147 190 240 218 273 400 504 415 188 289 348 379 277 374 451 87 216 65 33 39 39 45 43 25 58 10 1 0 5 0 0 0
21 175 250 281 264 287 362 463 469 471 495 473 420 504 227 259 322 74 68 80 71 52 24 46 35 9 5 8 2 0 0 0
7 177 370 381 342 359 448 590 684 657 593 539 616 649 319 432 181 137 128 90 71 57 74 55 34 11 7 5 1 0 0 0
68 228 372 451 548 636 731 875 919 764 660 679 729 490 481 123 100 89 76 57 55 58 52 22 12 1 3 0 0 0 0 0
196 300 376 493 671 860 930 1047 838 602 542 582 428 284 140 77 49 21 24 30 36 38 24 14 11 8 0 0 0 0 0 0
248 408 484 555 755 941 1020 1080 797 550 485 372 143 57 52 52 31 46 43 29 31 20 14 11 8 4 4 0 0 0 0 0
184 348 492 682 839 952 962 939 828 635 475 171 59 48 40 31 41 42 31 37 29 20 12 6 5 1 0 0 0 0 0 0
26 169 414 616 792 806 803 758 730 572 181 80 62 41 12 34 53 54 40 41 45 23 21 7 2 0 0 0 0 0 0 0
6 77 130 175 148 183 202 262 356 304 164 73 61 59 41 51 62 61 40 40 41 28 32 27 0 0 0 0 0 0 0 0
0 0 0 0 0 0 0 0 0 0 17 40 48 61 57 69 76 79 74 45 27 17 5 0 0 0 0 0 0 0 0 0
0 0 0 0 0 0 0 0 0 0 0 24 58 75 82 90 90 58 77 37 13 0 0 0 0 0 0 0 0 0 0 0

GFSFLT1_con_mucape_033.txt.gz
CAPE
182 89 79 9 26 85 125 285 368 373 75 19 73 257 293 343 266 186 147 44 3 0 0 0 0 0 0 0 0 0 0 0
196 173 108 123 155 166 282 335 275 391 145 53 138 296 233 180 105 8 10 5 4 0 0 0 0 0 0 0 0 0 0 0
350 249 148 168 220 259 370 416 332 415 175 65 84 245 261 207 38 16 18 10 9 3 0 0 0 0 0 0 0 0 0 0
643 333 232 235 297 421 474 457 421 379 232 71 148 251 255 140 46 27 48 23 29 36 0 0 0 0 0 0 0 0 0 0
612 577 382 302 393 481 516 458 484 428 310 213 218 222 190 129 35 60 67 43 46 63 69 0 0 0 0 0 0 1 1 0
528 628 637 525 470 545 532 417 445 447 458 310 335 248 152 66 50 75 58 37 75 57 66 0 0 0 0 0 1 17 0 0
433 503 560 707 569 509 501 371 486 435 460 383 210 307 167 142 117 63 55 45 58 46 17 0 17 28 7 10 15 2 1 0
436 400 338 554 480 565 553 543 474 350 368 338 259 196 206 246 213 223 251 56 47 47 15 18 28 38 10 13 4 0 0 0
379 455 398 313 393 444 622 620 248 6 10 81 246 279 252 213 198 210 265 46 27 13 18 46 72 32 15 3 0 0 0 0
0 122 318 248 369 396 604 610 386 125 160 185 267 311 245 235 315 237 89 63 37 34 48 53 25 38 30 10 0 0 0 0
0 0 174 201 323 375 468 541 585 574 412 458 404 345 338 321 317 166 121 135 69 58 63 69 68 40 13 9 4 0 0 0
3 28 320 421 428 406 431 450 435 561 605 633 575 565 517 481 420 198 134 72 58 44 85 45 24 26 14 1 0 6 0 0
58 182 341 416 433 412 432 435 570 607 677 698 662 575 503 492 360 135 80 70 55 85 50 26 9 4 6 6 5 0 0 0
38 122 235 313 351 392 446 634 757 809 746 554 460 440 424 319 181 66 59 55 45 24 12 17 15 5 5 1 0 0 0 0
25 113 254 364 443 529 669 849 833 620 474 333 290 314 290 107 58 49 33 31 38 36 20 10 1 6 9 8 0 0 0 0
0 9 137 303 486 652 825 804 769 613 498 484 365 167 73 71 52 50 34 49 40 17 11 10 0 1 0 0 0 0 0 0
0 23 91 152 219 281 343 274 120 17 10 44 94 121 89 64 86 50 61 46 18 4 1 2 3 0 0 0 0 0 0 0
0 0 0 0 0 0 0 0 0 0 0 0 0 0 21 58 73 77 68 13 6 8 2 0 0 0 0 0 0 0 0 0
0 0 0 0 0 0 0 0 0 0 0 0 0 0 6 11 34 48 63 9 41 20 2 0 0 0 0 0 0 0 0 0

GFSFLT1_con_mucape_036.txt.gz
CAPE
150 182 7 0 0 5 31 250 425 636 527 198 72 452 645 688 643 457 189 41 100 128 92 2 0 0 0 0 0 0 0 0
241 175 116 39 82 163 230 309 550 759 569 136 141 422 568 575 589 374 179 17 64 3 0 0 0 0 0 0 0 0 0 0
384 467 240 168 189 245 326 455 661 771 609 190 358 566 550 457 212 124 4 0 0 0 0 0 0 0 0 0 0 0 0 0
745 680 748 452 267 321 367 561 841 990 719 358 342 524 235 209 169 141 41 2 14 18 15 8 0 0 0 0 0 0 0 0
831 1069 899 838 576 513 492 554 834 989 866 465 233 227 410 138 103 32 74 30 35 48 39 30 35 0 0 0 0 2 0 0
813 935 1191 934 756 650 796 785 908 1070 990 730 565 436 582 278 43 57 43 28 49 49 45 81 103 29 0 1 18 12 0 0
838 899 1051 1231 1082 903 935 962 993 1049 853 400 402 396 505 106 83 73 72 98 84 88 70 59 27 0 2 5 16 8 3 0
857 929 1073 1258 1391 1351 1233 1136 747 923 582 195 256 326 488 76 68 64 109 189 263 122 81 14 14 13 17 42 15 0 2 4
840 871 969 1154 1410 1647 1478 1367 755 230 169 251 441 314 370 148 138 173 373 334 143 119 83 41 9 36 32 13 11 0 0 0
425 757 863 937 1089 1519 1570 1373 999 682 135 17 99 148 143 224 329 352 457 199 140 49 36 39 44 16 16 29 9 3 0 0
102 193 369 734 857 1198 1367 1445 1407 1089 239 123 156 277 326 342 340 370 288 210 139 51 61 71 48 49 18 8 0 0 0 0
360 352 387 547 664 945 1100 1299 1407 1411 613 496 461 516 486 339 251 294 173 188 106 58 83 79 48 26 17 15 0 0 1 0
558 645 763 884 903 916 1028 1110 1178 1288 1301 1169 790 528 357 186 234 84 123 92 93 72 64 66 57 25 0 4 1 8 3 2
560 812 977 1059 1135 1159 1155 1185 1134 1109 902 693 409 242 157 212 209 115 72 84 53 50 50 35 10 2 2 0 0 2 0 0
425 785 859 872 879 805 741 719 599 595 526 456 328 229 151 198 169 97 76 45 39 49 46 24 7 0 6 8 2 0 0 0
197 618 766 658 592 558 607 721 761 681 596 451 374 295 218 156 72 38 24 22 27 22 35 13 31 0 0 3 0 0 0 0
87 215 334 275 415 551 656 569 461 316 144 73 6 13 40 70 51 70 75 62 63 34 8 4 0 0 20 0 0 0 0 0
3 30 66 86 72 40 21 3 0 0 0 0 0 0 0 0 0 2 5 27 23 25 25 15 0 0 0 0 0 0 0 0
0 0 0 0 0 0 0 0 0 0 0 0 0 0 0 0 0 1 4 5 7 11 0 1 0 0 0 0 0 0 0 0

GFSFLT1_con_mucape_039.txt.gz
CAPE
145 51 56 72 14 3 3 104 143 311 259 289 110 61 194 334 627 631 527 359 239 258 150 39 68 0 0 0 0 0 0 0
190 38 22 3 15 4 42 91 238 359 265 146 77 24 158 529 865 616 546 424 200 249 154 14 42 0 0 0 0 0 0 0
183 178 33 32 46 34 19 39 153 398 433 122 31 112 208 380 631 670 638 528 204 199 76 0 0 0 0 0 0 0 0 0
208 206 237 122 167 224 239 302 387 666 571 301 102 294 443 480 483 510 499 405 127 29 10 13 7 6 0 0 0 0 0 0
263 361 376 300 340 527 412 510 561 827 929 637 220 293 578 614 632 375 255 78 34 21 15 27 41 18 13 11 0 0 0 6
415 429 518 606 522 718 775 560 580 893 1152 1254 715 449 553 810 557 354 266 15 23 42 33 28 41 26 20 12 2 0 21 10
393 502 631 594 732 1015 1196 683 561 671 1250 1042 1009 701 741 840 663 298 70 19 39 63 72 37 50 29 72 31 0 0 4 7
416 419 553 870 1000 1166 1246 832 885 930 1201 1374 879 585 777 856 689 226 85 61 53 93 124 164 120 73 21 3 2 6 3 1
459 352 681 923 1200 1435 1273 1132 1201 1152 1192 1144 587 274 200 529 886 271 102 74 148 161 219 199 65 25 9 27 38 43 1 3
582 469 454 905 1174 1671 2145 1537 1438 1288 1316 683 514 542 477 755 501 289 128 190 207 269 159 80 59 28 42 42 39 9 6 0
307 539 662 754 1067 1353 2308 2060 1720 1509 847 895 505 499 721 690 553 266 190 252 266 292 148 72 85 49 25 30 13 7 9 5
402 343 411 655 963 1243 1532 1992 1929 1624 1374 1049 327 335 392 444 416 271 192 172 164 108 66 63 75 11 9 37 16 12 4 0
533 652 670 678 774 992 1314 1713 1875 1834 1738 959 536 773 611 542 674 542 151 69 51 7 31 37 59 36 8 19 17 12 7 0
497 883 1063 1142 1131 1182 1292 1480 1599 1680 1834 1070 1013 1142 1093 1009 643 377 157 80 44 37 33 44 35 29 30 25 15 6 0 2
241 802 1157 1306 1411 1449 1468 1546 1562 1550 1535 1469 1205 789 849 438 217 95 111 97 61 83 49 36 53 26 34 25 10 19 0 0
55 707 1077 1207 1241 1195 1239 1115 1028 736 576 525 328 275 239 243 200 177 125 71 48 55 54 52 27 29 41 4 5 0 0 0
285 594 946 953 963 977 693 473 520 440 315 310 300 127 33 28 55 81 52 31 21 50 53 41 19 0 4 0 0 0 0 0
307 505 604 584 431 335 474 497 294 202 99 27 17 6 0 0 0 0 0 3 4 5 7 2 16 4 8 0 0 0 0 0
5 8 2 36 108 143 111 46 5 0 0 0 0 0 0 0 0 0 0 0 0 1 3 5 7 3 0 0 0 0 0 0

GFSFLT1_con_mucape_042.txt.gz
CAPE
55 0 0 0 0 0 0 0 0 0 0 23 38 143 110 75 81 328 310 430 484 463 305 124 58 25 18 0 0 0 0 0
156 12 0 0 0 0 0 0 0 0 16 58 102 30 79 112 352 338 505 458 388 296 254 110 68 50 11 0 0 0 0 0
20 10 0 0 0 0 0 0 0 45 82 3 58 14 25 136 460 597 556 444 272 253 247 98 57 24 0 0 0 0 0 0
43 25 9 2 0 0 0 0 21 95 140 90 31 34 15 98 260 521 503 442 283 166 210 80 19 11 2 4 1 0 0 0
142 71 16 13 16 0 0 0 0 121 274 392 38 0 14 255 410 320 382 498 361 116 51 6 2 13 11 12 27 2 1 2
132 178 163 59 110 144 99 75 157 232 308 536 368 101 302 611 459 476 283 281 255 86 17 20 33 46 36 29 27 16 10 30
238 262 285 281 182 236 334 321 363 416 558 610 577 331 504 509 387 336 302 155 98 50 19 29 52 76 93 78 31 54 37 1
324 258 333 419 399 357 439 495 515 548 729 786 858 737 631 497 310 269 281 136 77 54 58 37 76 131 117 64 42 59 11 11
385 296 388 430 600 617 547 528 498 539 804 897 872 839 613 501 419 295 230 189 80 90 60 127 151 97 51 17 56 15 20 23
454 286 260 601 723 877 915 843 644 701 689 1094 917 770 717 594 396 331 248 242 126 103 98 159 222 55 89 56 15 25 0 14
339 211 408 343 893 1104 1216 1014 769 915 1040 1267 1020 812 623 464 359 517 424 257 275 161 128 72 140 74 157 62 42 46 36 4
301 284 284 472 584 874 1390 1387 1308 1179 1225 1229 1059 726 468 539 676 630 478 311 184 133 138 122 85 90 31 81 50 29 23 23
400 537 468 443 549 942 1772 1848 1665 1317 1418 1252 995 645 296 362 413 409 376 302 229 241 99 21 11 12 29 63 48 47 18 6
265 614 787 837 802 876 1383 1716 1709 1378 1315 1152 1043 813 534 450 503 500 392 456 410 398 29 14 19 15 33 58 26 58 48 41
67 593 928 1141 1165 1192 1241 1547 1565 1382 1367 1155 1243 608 728 602 912 711 518 388 312 291 21 22 27 40 55 61 15 48 12 1
17 380 988 1275 1487 1427 1437 1474 1312 1264 1117 874 885 813 689 802 879 585 441 281 104 89 117 67 43 60 63 32 13 0 6 6
0 136 983 1189 1286 1257 1326 1196 1192 1202 790 711 692 677 521 275 207 127 70 88 97 39 13 0 12 21 12 11 10 7 1 2
215 351 951 1007 1030 1006 938 593 468 627 611 484 349 242 136 47 23 0 0 0 0 0 0 2 2 5 13 14 14 6 1 0
290 584 677 642 699 697 475 274 394 377 263 125 39 14 2 0 0 0 0 0 0 0 2 2 3 2 2 0 0 0 0 0

GFSFLT1_con_mucape_045.txt.gz
CAPE
0 0 0 0 0 0 0 1 1 0 4 10 3 43 1 3 0 0 145 179 192 251 236 75 29 0 0 0 0 0 0 0
0 0 0 0 0 0 0 0 0 0 0 0 0 0 0 12 0 98 43 59 144 318 221 112 78 0 23 0 0 0 0 0
0 0 0 0 0 0 0 0 0 0 0 2 2 0 0 0 4 10 8 13 120 267 158 92 70 66 6 1 1 0 0 0
0 0 0 0 0 0 0 0 0 0 0 3 5 19 6 0 0 51 17 191 242 187 145 105 74 50 10 9 24 18 9 0
0 0 0 0 0 0 0 0 0 0 0 0 0 0 0 0 5 99 199 276 267 240 150 129 135 43 26 34 31 22 1 12
0 0 0 0 0 0 0 0 0 0 0 0 0 0 0 0 5 89 217 275 347 272 147 95 100 29 31 40 58 53 38 26
24 22 0 2 0 0 0 0 0 0 0 4 42 111 0 4 67 123 187 201 333 317 165 64 44 19 14 23 55 19 50 46
92 100 79 26 23 0 0 0 0 0 0 34 34 84 149 49 130 193 164 151 191 172 122 56 35 28 19 37 40 61 16 5
117 105 110 110 86 99 57 0 0 0 23 48 69 80 90 95 156 216 179 150 124 55 149 91 53 41 72 71 130 69 27 44
131 85 88 117 158 189 215 200 128 79 233 287 240 248 307 302 238 292 248 203 164 128 158 133 103 49 116 169 4 51 34 37
209 162 144 158 160 206 193 278 269 249 193 368 436 451 362 447 357 356 351 271 175 180 187 176 125 102 117 126 115 42 55 31
189 228 192 197 337 414 313 225 234 163 185 326 523 606 545 425 476 546 463 268 168 221 219 244 161 143 138 197 117 45 53 34
203 302 330 167 281 382 276 338 357 280 274 391 668 583 614 347 478 555 431 454 436 581 368 321 285 193 94 69 69 39 47 16
251 359 338 359 239 339 349 515 467 468 487 831 759 694 639 537 429 565 610 476 432 579 403 370 190 58 12 23 33 31 6 14
193 385 560 696 687 868 1048 888 819 742 786 905 944 815 628 685 562 418 277 285 490 351 427 240 170 87 74 33 17 10 37 16
24 288 564 825 863 974 1234 1457 1426 1249 1224 1161 1185 1015 842 491 401 419 444 330 291 436 203 128 90 49 35 10 12 2 23 0
0 231 662 1003 1063 1078 1056 1058 1122 1127 1218 1136 1018 1065 699 512 553 548 505 336 326 249 264 6 11 8 1 16 11 9 15 6
0 401 952 1083 1113 1190 1165 1086 1097 1003 1117 1103 935 786 719 572 476 433 309 189 41 4 3 2 1 0 1 6 4 6 11 16
49 450 813 932 984 1011 1058 911 770 737 681 658 612 583 519 409 117 4 0 0 0 0 0 0 1 2 5 4 6 4 0 0

GFSFLT1_con_mucape_048.txt.gz
CAPE
0 0 0 2 0 0 14 17 6 17 19 4 16 10 3 0 2 1 1 70 82 168 144 94 62 26 0 0 0 0 0 0
0 0 0 0 0 0 0 4 1 0 4 2 1 1 0 2 4 2 3 14 70 144 126 103 47 5 0 9 0 0 0 0
0 0 0 0 0 0 0 0 0 0 0 5 0 0 0 3 0 0 0 0 41 94 141 94 71 3 44 19 25 11 0 0
0 0 0 0 0 0 0 0 0 0 0 0 0 1 3 0 0 0 0 0 0 16 51 132 68 39 27 49 48 14 13 29
0 0 0 0 0 0 0 0 0 0 0 0 0 0 0 0 0 0 0 5 14 18 64 109 62 60 48 62 52 30 41 38
0 0 0 0 0 0 0 0 0 0 0 0 0 0 0 0 0 0 2 30 31 103 139 177 127 97 40 36 10 21 41 34
6 1 0 0 0 0 0 0 0 0 0 0 0 0 0 0 0 0 0 46 82 115 164 206 112 91 94 36 24 23 35 37
87 38 14 5 0 0 0 0 0 0 0 0 0 0 0 0 0 0 0 26 86 123 170 124 87 84 85 46 42 43 41 25
220 83 81 58 21 1 0 0 0 0 0 0 0 0 15 13 7 4 0 13 43 164 207 149 110 63 68 52 28 26 44 50
333 281 179 147 129 77 75 9 0 0 0 0 5 20 28 55 117 225 31 53 134 145 229 188 131 115 78 52 42 64 96 66
306 352 337 247 197 186 155 151 138 60 12 0 0 18 35 54 69 140 184 76 177 163 135 85 78 117 89 115 54 54 86 56
226 269 329 348 277 239 243 215 169 207 149 56 8 12 39 100 105 107 170 215 266 320 261 227 148 119 133 249 64 167 36 17
170 160 193 253 295 294 219 211 239 259 272 252 120 130 174 169 168 188 269 185 317 257 263 232 168 219 215 160 124 59 34 9
127 134 125 151 214 296 295 279 275 298 281 234 180 147 304 327 311 302 221 81 367 257 144 245 330 316 171 65 66 38 21 25
130 183 176 178 215 263 290 316 329 381 303 247 228 299 393 447 403 353 136 75 293 274 274 244 271 253 147 127 150 30 35 12
46 174 208 207 220 303 394 403 434 428 475 425 343 388 485 537 528 536 537 520 394 345 308 217 152 148 98 134 50 35 9 2
0 155 215 376 497 804 833 843 773 667 626 531 492 437 543 677 579 462 438 438 225 206 274 213 289 20 26 32 5 9 2 0
2 16 194 475 657 882 1017 1049 1108 1101 1022 818 723 716 691 597 401 364 440 482 462 362 314 169 121 9 8 9 2 5 3 11
0 22 208 542 663 749 870 955 1101 1023 978 874 700 713 588 543 539 447 355 191 124 169 83 5 5 6 5 5 5 6 5 9

GFSFLT1_con_mucape_051.txt.gz
CAPE
0 0 0 2 0 1 15 2 18 20 52 12 23 15 66 82 41 47 53 61 88 94 114 142 96 93 54 31 12 0 0 0
0 0 0 1 3 3 8 0 11 11 12 14 14 1 80 74 62 63 50 68 112 190 184 119 139 121 48 18 22 0 0 0
0 0 0 0 0 0 0 0 1 0 1 7 12 52 21 58 40 1 3 29 11 95 166 202 195 133 66 53 18 0 0 0
0 0 0 0 0 0 0 0 0 0 0 2 8 32 49 0 23 3 15 5 5 12 130 160 139 87 71 49 33 18 10 32
0 0 0 0 0 0 0 0 0 0 0 1 0 0 0 0 0 1 5 4 1 0 1 35 115 163 107 85 49 41 32 39
0 0 0 0 0 0 0 0 0 0 0 0 0 0 0 0 0 0 0 0 0 0 0 8 9 109 70 60 46 38 44 48
17 0 0 0 0 0 0 0 0 0 0 0 0 0 0 0 0 0 0 0 0 0 5 58 67 75 84 76 31 36 46 34
146 22 0 0 0 0 0 0 0 0 0 0 0 0 0 0 0 0 0 0 0 0 15 41 40 100 117 94 91 53 46 31
198 161 51 11 0 0 0 0 0 0 0 0 0 0 0 0 0 0 0 0 0 0 11 12 43 56 90 29 85 81 42 55
205 253 206 70 30 14 1 0 0 0 0 0 0 0 0 6 1 2 2 5 0 3 6 23 21 66 99 52 59 55 61 59
136 229 282 255 130 63 89 62 25 0 0 0 0 0 0 8 4 24 26 27 1 44 105 71 70 97 104 116 73 70 53 113
107 155 248 252 264 213 132 120 63 31 12 1 0 0 0 0 0 0 1 26 42 55 104 52 136 158 185 94 118 58 148 65
72 91 150 227 231 290 363 216 173 119 85 75 32 24 1 0 0 3 17 39 57 79 45 121 97 124 146 113 98 105 188 64
38 100 123 157 194 216 299 315 271 224 143 121 96 98 48 30 29 21 19 44 86 64 51 135 187 205 140 104 128 163 147 65
23 66 123 105 115 137 195 292 332 312 253 187 169 172 118 124 77 32 76 113 181 165 82 255 210 259 89 237 219 209 64 13
0 10 27 71 71 92 141 202 246 316 301 250 210 221 226 173 167 173 253 272 286 297 74 141 326 252 232 210 121 184 17 35
6 2 24 39 78 118 168 213 255 263 249 245 255 341 361 287 235 301 342 433 506 439 420 117 282 246 255 183 46 27 2 7
8 7 33 109 104 124 180 235 250 247 229 250 311 468 469 372 292 331 251 329 414 849 482 371 295 159 134 136 58 31 3 4
0 6 4 89 148 167 184 204 297 387 441 460 517 523 448 406 486 434 504 422 357 266 271 216 207 154 72 25 8 3 9 7

GFSFLT1_con_mucape_054.txt.gz
CAPE
0 0 0 0 1 1 7 37 26 7 157 23 3 73 89 58 40 26 25 30 17 17 11 29 46 47 47 67 50 13 0 0
0 0 0 0 0 1 9 13 15 14 23 27 3 0 47 56 55 36 50 64 73 53 104 81 63 78 93 60 41 23 0 0
0 0 0 0 1 1 0 11 11 33 22 15 4 7 28 26 117 71 86 104 134 137 105 164 138 77 105 84 66 65 28 3
0 0 0 0 0 0 0 0 8 0 9 2 6 2 6 12 48 68 94 50 55 52 79 128 139 128 110 77 82 53 29 19
0 0 0 0 0 0 0 0 0 2 5 7 10 0 2 0 41 41 37 10 9 12 23 62 101 112 101 99 68 44 29 32
0 0 0 0 0 0 0 0 0 0 8 8 5 26 38 4 32 14 10 1 14 7 1 0 5 23 98 131 111 80 33 39
1 0 0 0 0 0 0 0 0 1 2 0 2 0 0 1 17 15 4 4 0 3 1 0 0 0 18 27 102 105 64 39
44 16 0 0 0 0 0 0 0 0 0 2 2 0 0 0 0 0 0 0 0 0 0 0 0 0 12 58 81 109 97 52
48 94 46 0 0 0 0 0 0 0 0 0 0 0 0 0 0 0 0 0 0 0 0 0 0 0 13 23 56 69 34 56
38 86 136 98 17 12 0 0 0 0 0 0 0 0 0 0 0 0 0 0 0 0 0 1 4 3 10 19 15 60 19 4
42 49 93 142 148 66 40 5 0 0 0 0 0 0 0 0 0 0 0 0 0 0 0 0 0 5 12 13 18 50 75 49
3 21 47 88 134 207 172 98 56 37 1 0 0 0 0 0 0 0 0 9 6 13 2 0 5 15 73 75 37 49 78 111
7 19 53 74 82 102 161 201 172 132 74 49 11 12 0 0 0 0 0 0 0 2 6 23 41 61 86 95 79 141 110 91
0 6 26 61 82 84 95 117 160 258 218 159 93 108 41 14 14 2 1 2 4 0 0 5 30 56 2 14 47 106 138 110
0 5 18 36 57 64 85 85 63 175 232 265 260 218 207 161 85 10 2 4 0 0 22 32 29 46 22 25 73 149 114 104
0 0 5 10 23 53 60 45 44 28 112 148 200 209 199 198 185 128 62 81 11 22 39 51 64 101 147 131 124 254 187 144
2 6 0 0 0 15 44 46 27 10 30 56 71 106 128 113 99 168 167 123 119 131 127 158 208 225 172 192 159 194 231 205
0 1 1 0 0 6 19 52 61 24 51 59 74 88 156 123 98 222 249 216 190 173 171 344 426 295 261 182 237 236 221 145
0 0 6 9 17 15 52 57 76 90 110 121 140 160 157 158 253 304 243 253 215 382 554 515 588 331 316 250 259 149 117 101

GFSFLT1_con_mucape_057.txt.gz
CAPE
0 0 0 1 3 14 23 31 7 20 15 32 14 12 5 5 3 30 38 26 39 65 45 35 27 47 40 60 36 6 0 0
0 0 0 0 0 0 19 38 6 39 14 23 5 3 2 31 29 37 31 66 52 59 92 52 38 56 54 82 71 58 32 23
0 0 0 0 0 4 0 46 17 18 10 11 6 6 0 31 63 61 57 85 72 132 107 108 74 70 56 66 68 55 37 45
0 0 3 0 0 14 0 0 2 0 8 7 7 5 0 8 57 73 80 119 165 135 148 168 135 87 100 63 51 63 62 49
0 0 0 0 3 13 0 0 0 0 3 20 6 9 13 0 4 31 15 67 95 132 112 83 82 63 72 65 89 84 59 68
0 0 0 0 0 0 0 0 0 4 8 5 22 1 0 0 3 35 10 69 68 27 35 72 121 103 119 88 75 89 62 44
0 0 0 0 0 0 0 0 0 0 0 1 2 6 7 0 3 0 47 41 25 15 5 12 60 174 166 149 101 74 61 56
1 11 1 0 0 0 0 0 0 0 0 9 0 4 6 3 3 1 24 2 0 0 10 14 66 64 38 93 84 52 27 48
1 18 25 0 0 0 0 0 0 0 0 0 0 0 0 0 3 0 1 6 3 5 4 6 20 18 15 32 88 66 17 5
0 6 54 72 1 0 0 0 0 0 0 0 0 0 0 0 0 6 0 1 0 1 0 3 5 0 3 8 80 40 9 1
0 2 31 81 112 36 17 2 0 0 0 0 0 0 0 0 0 0 0 0 0 0 0 0 0 0 0 6 59 35 5 2
1 10 15 41 79 124 123 74 8 0 0 0 0 0 0 0 0 0 0 0 0 0 0 0 0 0 2 38 42 13 1 30
0 0 0 13 24 30 101 161 177 130 0 0 0 0 0 0 0 0 0 0 0 0 0 0 0 0 0 6 0 0 20 73
0 0 0 2 16 24 32 58 106 159 163 85 48 12 7 0 0 0 0 0 0 2 6 6 0 0 6 4 16 43 38 48
0 0 0 0 3 15 32 20 27 58 115 155 135 91 65 24 31 15 21 13 2 0 0 0 3 0 0 7 26 11 9 17
0 0 1 0 8 6 10 21 16 7 31 96 181 221 220 213 199 170 161 132 11 3 1 1 12 4 16 30 21 30 42 79
0 0 0 2 0 0 3 25 30 25 9 16 61 123 147 155 148 116 78 76 96 124 50 19 33 9 38 44 62 79 69 103
0 0 0 4 9 11 12 30 26 39 25 18 40 34 40 56 52 45 66 95 109 179 213 136 84 89 83 75 64 121 86 188
0 0 0 1 3 6 3 0 5 24 38 50 44 37 38 30 39 93 143 160 217 203 209 169 125 113 182 143 110 166 153 124

GFSFLT1_con_mucape_060.txt.gz
CAPE
0 0 3 8 18 3 5 1 25 17 12 19 2 8 5 8 43 171 121 90 108 76 58 118 84 28 22 10 0 0 0 0
0 0 3 11 8 11 2 23 7 22 17 19 9 2 0 0 40 69 131 108 142 138 119 132 108 99 94 76 32 17 0 0
0 0 1 4 13 23 1 10 32 7 53 3 2 9 4 0 30 40 108 150 132 134 150 119 106 147 156 130 94 71 29 15
9 0 0 3 6 3 26 2 4 10 12 1 4 2 1 0 6 0 56 153 198 118 139 174 167 153 196 207 169 160 133 63
37 1 0 0 1 11 22 0 32 0 0 0 4 0 0 0 0 34 87 124 162 157 131 192 251 236 203 269 268 242 266 235
72 18 0 0 0 7 11 0 0 0 0 0 2 0 1 2 1 0 98 79 114 146 167 231 286 285 261 293 244 217 245 264
99 31 0 0 0 1 8 0 0 0 0 0 1 6 0 0 0 1 1 36 83 106 142 246 279 208 119 54 156 296 306 238
110 69 18 10 0 0 1 2 0 0 0 0 1 15 0 6 0 8 3 41 37 41 77 197 135 89 70 50 181 382 414 312
125 105 56 36 0 0 0 2 5 0 0 0 0 26 14 0 2 7 0 0 16 0 0 84 89 49 75 198 162 141 186 235
135 149 112 61 7 0 0 0 0 12 0 0 0 24 24 18 1 0 2 2 4 8 5 6 80 80 97 104 176 96 244 288
129 204 163 118 35 0 0 0 0 0 8 17 17 19 18 25 37 23 8 23 17 2 4 13 23 34 46 60 127 137 237 335
195 213 195 169 111 42 16 9 1 0 1 5 7 8 11 26 21 30 22 25 9 8 7 9 15 26 33 84 70 61 151 264
105 258 268 156 156 97 79 89 79 39 6 0 2 5 7 9 11 7 36 30 39 18 20 24 17 30 78 84 132 27 154 276
86 130 239 277 193 145 95 66 101 116 112 52 1 5 6 8 3 3 8 9 14 11 18 33 55 57 47 32 38 99 228 75
4 88 102 197 233 210 142 107 74 66 98 110 107 48 33 16 1 3 8 2 0 5 15 14 10 18 6 30 27 77 27 0
0 0 3 63 133 229 195 147 117 69 39 49 76 140 114 65 57 41 10 0 18 4 2 5 13 9 6 71 25 24 0 1
0 0 0 0 58 163 202 185 156 113 61 60 10 21 68 141 163 153 122 111 119 105 91 84 67 0 0 3 0 180 7 1
0 0 0 0 0 7 131 257 208 152 113 70 39 19 57 147 166 165 153 142 117 98 82 89 85 109 86 94 88 22 7 13
0 0 0 0 0 1 15 79 223 245 202 156 104 66 58 55 70 73 69 83 89 148 169 169 165 149 134 138 119 61 53 88

GFSFLT1_con_mucape_063.txt.gz
CAPE
120 0 0 62 116 56 10 12 0 5 2 3 1 0 5 4 11 84 148 108 140 162 167 207 90 73 55 101 108 47 24 0
80 0 0 18 74 37 6 6 0 10 26 0 1 0 0 0 26 57 140 68 144 183 192 261 264 128 97 213 78 54 0 0
50 0 5 52 39 10 17 2 7 19 20 25 3 13 0 1 11 58 107 137 208 258 270 266 269 247 288 237 240 81 24 6
123 0 0 26 49 8 11 8 7 45 7 14 4 3 1 1 0 0 50 85 172 224 309 280 255 340 297 327 363 294 155 60
286 55 9 16 8 8 35 30 1 0 0 0 0 0 0 0 0 0 2 25 155 154 138 153 295 250 270 327 302 293 309 212
269 174 45 10 21 14 7 22 14 0 0 3 1 19 1 13 3 2 0 1 75 75 112 93 158 331 279 394 390 383 351 260
172 219 128 16 11 25 10 9 19 13 0 0 0 0 0 0 0 0 0 1 44 125 115 101 96 180 232 287 312 394 342 327
113 248 169 31 11 29 8 5 5 11 5 0 0 0 1 3 2 0 1 0 16 112 132 157 170 170 131 183 323 359 400 336
92 236 254 78 19 27 16 0 4 5 0 0 0 0 0 0 4 4 3 1 21 70 164 148 156 115 81 170 187 183 197 295
63 178 311 184 48 36 29 0 1 3 13 2 0 0 0 0 1 5 2 10 55 95 93 124 136 160 178 136 78 53 134 96
59 198 343 303 119 37 27 1 2 5 5 20 21 20 34 8 12 23 1 2 82 71 100 59 55 38 41 114 73 51 94 163
71 225 343 411 302 113 44 7 0 23 23 4 17 15 34 32 26 63 31 38 43 37 1 10 24 22 36 44 93 106 112 154
160 301 397 460 438 310 118 49 8 14 51 52 97 97 96 101 168 154 270 106 46 68 94 2 7 12 32 37 44 61 132 119
58 313 416 501 516 496 320 167 74 28 30 74 249 362 383 433 443 289 301 305 216 110 93 89 73 50 78 64 54 87 121 133
17 121 251 456 493 500 499 395 279 114 40 80 156 265 252 327 289 288 262 267 213 104 42 72 159 130 133 150 144 168 150 127
34 34 56 108 252 463 475 446 412 311 162 86 172 294 248 183 271 248 223 213 196 198 224 238 244 209 149 219 188 210 210 159
5 6 2 4 7 114 279 433 425 370 335 380 174 240 205 249 233 257 253 257 210 223 153 154 181 86 0 3 12 234 121 111
0 0 1 9 5 2 26 171 404 406 433 352 372 382 278 286 258 152 194 221 221 201 175 175 162 181 55 53 48 63 77 216
0 0 0 10 9 2 0 2 63 370 380 421 360 455 423 349 250 183 196 214 236 202 195 161 164 166 56 70 89 79 61 73

GFSFLT1_con_mucape_066.txt.gz
CAPE
216 5 0 89 82 89 1 26 5 4 1 0 0 0 1 7 19 8 3 4 65 69 49 82 77 27 98 54 63 67 10 6
200 10 0 23 102 7 160 6 9 0 0 0 2 4 0 15 1 1 0 12 35 48 56 72 77 72 67 45 77 22 18 7
205 10 0 16 92 14 9 6 1 0 3 25 1 4 0 1 4 3 3 9 0 29 37 85 113 105 71 62 18 7 1 2
207 24 0 2 133 0 3 2 13 1 16 16 0 0 0 3 2 0 0 0 6 16 89 93 88 177 140 118 148 42 36 8
239 75 1 11 38 7 1 5 5 9 19 1 13 0 0 0 0 2 1 0 3 16 80 84 98 151 176 165 161 166 126 22
291 130 11 5 22 19 0 1 2 0 9 0 0 0 0 4 3 5 5 0 16 44 97 140 193 119 146 125 126 151 179 106
79 238 51 6 20 17 5 1 5 2 0 0 0 0 0 0 0 1 1 2 1 22 61 75 82 120 114 93 59 62 142 105
6 228 121 2 23 42 2 6 11 13 3 0 0 0 4 0 0 8 0 0 2 0 27 46 28 33 109 91 59 57 60 73
0 160 214 32 10 35 20 0 4 7 0 3 0 0 0 0 3 4 6 1 2 2 2 3 26 30 46 81 52 24 2 0
0 69 294 124 4 15 12 2 0 5 13 1 4 0 0 0 0 0 13 3 4 4 1 5 20 41 40 14 14 8 1 5
5 26 378 272 23 14 41 0 0 0 8 8 1 3 4 0 0 0 0 4 4 10 9 18 17 32 37 26 21 2 8 12
45 67 364 415 202 31 42 15 0 3 0 5 6 3 3 2 0 3 3 0 0 0 1 0 19 38 35 12 0 3 7 4
59 216 314 469 399 133 47 22 3 7 11 6 0 6 7 44 10 1 2 0 0 0 0 0 1 0 9 13 11 15 15 4
65 330 334 444 470 425 203 92 21 9 38 17 10 12 19 18 42 7 5 5 0 0 0 0 0 0 0 0 0 0 0 0
4 64 331 464 502 515 520 341 196 80 9 54 44 24 14 25 28 61 18 47 18 0 0 0 0 0 0 0 0 0 0 0
9 3 0 16 191 569 524 619 482 282 212 59 50 116 111 86 56 49 55 50 54 42 4 0 1 2 1 0 0 0 0 0
8 11 8 13 5 13 57 384 519 522 330 266 115 71 151 125 122 167 164 129 62 61 43 36 3 0 7 6 0 1 3 7
0 1 13 22 0 0 2 2 15 506 494 431 292 173 103 152 150 131 125 105 79 68 59 62 45 55 66 40 44 25 33 63
0 0 0 0 0 2 18 8 3 8 152 469 426 347 217 152 117 107 124 115 112 102 84 59 69 83 66 80 78 56 44 41

GFSFLT1_con_mucape_069.txt.gz
CAPE
65 63 14 0 8 0 0 15 11 0 0 1 6 0 4 40 22 20 12 25 16 17 42 32 77 7 18 4 3 9 0 0
121 107 63 20 4 0 3 6 3 1 0 0 0 10 0 17 31 9 3 3 3 32 32 38 71 60 59 66 41 24 0 0
153 74 27 21 0 0 1 13 12 8 0 0 3 5 0 0 5 10 4 11 3 19 27 36 34 50 59 49 36 20 10 9
59 35 9 26 0 0 0 1 8 8 1 0 1 1 0 0 0 13 4 8 8 14 12 6 9 18 9 1 47 9 7 6
25 48 34 26 10 0 0 0 4 4 5 3 0 0 0 0 4 10 14 5 9 28 2 3 15 3 3 61 63 24 15 5
55 49 50 19 4 0 14 0 4 3 1 5 0 0 0 0 2 11 15 2 6 4 15 19 4 29 54 57 72 47 25 0
72 47 57 47 13 13 6 5 0 2 11 2 1 0 0 0 0 0 4 10 5 1 3 40 44 32 102 76 70 66 77 68
55 81 97 51 26 2 0 0 0 1 6 0 2 0 0 0 0 0 2 0 4 16 6 30 71 56 50 102 83 74 62 61
123 137 100 64 33 0 0 0 0 0 0 2 2 0 0 0 0 0 7 13 0 8 7 23 24 39 43 69 72 62 44 44
164 140 120 91 45 0 0 0 0 0 1 4 0 0 0 0 0 0 0 1 10 10 6 7 17 28 33 34 50 48 45 31
109 128 115 104 80 33 0 0 0 0 0 2 2 0 0 0 0 0 0 0 2 2 16 10 8 12 14 31 26 31 21 22
1 142 122 113 104 95 24 0 0 0 0 0 0 2 0 0 0 0 0 0 0 0 6 2 11 12 13 11 5 2 9 6
0 173 152 127 127 133 97 10 0 0 0 0 0 2 0 0 0 5 1 0 0 0 0 0 0 0 0 0 0 4 0 4
33 168 210 184 158 193 204 125 72 7 0 0 0 0 0 2 8 14 3 4 0 0 0 0 0 0 0 0 0 0 0 0
36 86 129 253 187 170 203 227 227 188 147 95 13 0 2 0 1 8 26 25 7 0 0 0 0 0 0 0 0 0 0 0
12 10 27 52 106 154 217 252 205 197 265 250 219 166 85 17 11 0 8 34 20 1 0 0 0 0 0 0 0 0 0 0
0 1 3 1 18 53 71 83 218 202 164 176 237 193 168 119 71 53 14 3 13 31 24 3 0 8 0 0 12 5 0 0
0 0 0 2 0 3 19 18 18 29 171 261 205 122 220 208 140 105 67 43 26 27 36 44 46 47 36 17 12 3 3 1
0 0 0 0 0 0 0 0 0 0 0 29 130 245 159 126 187 187 174 152 157 154 128 79 82 80 76 68 71 58 37 69

GFSFLT1_con_mucape_072.txt.gz
CAPE
117 96 53 10 0 1 1 2 2 0 0 7 0 4 25 17 27 38 56 38 45 0 0 0 0 0 0 0 0 0 0 0
146 103 69 53 0 0 0 1 0 0 0 0 2 0 0 11 24 24 16 28 45 13 0 0 0 0 0 0 0 0 0 0
173 126 107 97 47 0 0 0 2 1 3 0 7 0 9 13 20 33 52 58 45 38 3 6 14 0 0 10 4 0 1 0
202 165 149 114 60 8 0 0 0 3 5 0 0 24 2 0 21 36 8 27 26 9 4 9 67 37 21 45 27 16 15 4
220 192 162 101 65 15 0 0 0 4 4 0 0 0 1 1 27 30 20 10 15 7 4 13 64 70 51 58 66 49 19 0
134 217 166 94 57 23 0 0 0 0 4 0 0 0 0 9 0 17 22 1 7 25 10 41 44 53 63 52 63 47 26 25
77 137 136 100 63 26 0 0 0 0 1 0 0 0 0 0 2 0 3 6 17 9 23 19 37 31 49 42 30 14 20 59
24 83 105 97 81 37 0 0 0 0 0 4 0 0 0 0 0 0 0 1 2 1 3 3 18 13 3 5 0 0 8 55
18 79 97 102 79 38 0 0 0 0 0 2 0 0 0 0 0 0 0 0 0 7 8 6 7 20 1 6 22 11 48 63
13 82 120 133 105 54 12 0 0 0 0 1 1 3 0 0 0 0 0 5 10 3 2 17 13 13 25 24 69 77 63 79
20 108 173 164 121 73 32 0 0 0 0 0 0 2 4 0 0 0 0 0 0 7 21 22 15 3 30 40 27 35 48 51
71 148 210 192 167 117 68 3 0 0 0 1 0 0 2 2 0 0 0 0 0 0 12 15 11 17 18 7 17 15 17 22
68 139 151 183 186 165 145 116 17 0 0 0 0 0 0 2 2 0 0 1 0 0 0 1 6 5 12 16 18 20 17 15
60 154 180 181 125 181 160 149 99 73 18 0 0 0 0 0 0 0 1 0 0 0 0 0 0 0 0 2 7 1 0 3
223 178 174 224 212 202 176 172 129 121 103 118 85 74 50 17 0 0 0 3 3 3 5 1 0 0 0 0 0 0 0 0
39 78 119 199 182 166 95 114 127 145 119 133 111 110 71 88 65 52 8 0 1 3 4 4 3 2 0 0 0 0 0 0
22 5 24 15 7 22 36 17 47 74 102 105 99 87 94 78 86 81 85 76 43 8 1 7 22 12 1 0 0 6 7 2
0 0 0 0 0 1 4 0 4 13 24 43 84 121 105 79 97 100 112 129 106 101 102 59 29 26 29 6 5 4 22 61
0 0 0 2 0 0 0 1 2 0 0 0 0 2 51 117 161 173 114 123 131 133 136 100 90 103 88 81 59 42 33 130